This is the latest recevied weather packets stored in our database for station/object VE4GLS. If no packets are shown the sender has not sent any weather packets the latest 1 day(s).
| Time | Temp. | Humidity | Pressure | Rain* | Wind** | Luminosity | Snow |
|---|---|---|---|---|---|---|---|
| 1777980983 | -2.22° C | 85% | 1008.4 hPa | 0 mm | 3.13 m/s, 313° | - | - |
| 1777980755 | -2.22° C | 85% | 1008.3 hPa | 0 mm | 4.02 m/s, 324° | - | - |
| 1777980383 | -2.22° C | 85% | 1008.3 hPa | 0 mm | 2.68 m/s, 302° | - | - |
| 1777979855 | -2.22° C | 85% | 1008.2 hPa | 0 mm | 3.58 m/s, 306° | - | - |
| 1777979783 | -2.22° C | 85% | 1008.2 hPa | 0 mm | 2.68 m/s, 313° | - | - |
| 1777979183 | -2.22° C | 84% | 1008.2 hPa | 0 mm | 4.02 m/s, 321° | - | - |
| 1777978955 | -2.22° C | 84% | 1008.2 hPa | 0 mm | 3.13 m/s, 312° | - | - |
| 1777978582 | -2.22° C | 84% | 1008.1 hPa | 0 mm | 2.24 m/s, 314° | - | - |
| 1777978054 | -2.22° C | 83% | 1008.1 hPa | 0 mm | 2.68 m/s, 316° | - | - |
| 1777977982 | -2.22° C | 83% | 1008 hPa | 0 mm | 2.24 m/s, 324° | - | - |
| 1777977382 | -1.67° C | 83% | 1008 hPa | 0 mm | 2.68 m/s, 335° | - | - |
| 1777977154 | -1.67° C | 82% | 1008 hPa | 0 mm | 2.24 m/s, 334° | - | - |
| 1777976782 | -1.67° C | 82% | 1008 hPa | 0 mm | 2.68 m/s, 326° | - | - |
| 1777976256 | -1.67° C | 81% | 1007.9 hPa | 0 mm | 3.58 m/s, 334° | - | - |
| 1777976182 | -1.67° C | 81% | 1008 hPa | 0 mm | 3.58 m/s, 327° | - | - |
| 1777975582 | -1.67° C | 82% | 1007.9 hPa | 0 mm | 2.24 m/s, 324° | - | - |
| 1777975356 | -1.67° C | 83% | 1007.8 hPa | 0 mm | 3.58 m/s, 318° | - | - |
| 1777974981 | -1.67° C | 83% | 1007.7 hPa | 0 mm | 2.68 m/s, 312° | - | - |
| 1777974455 | -1.67° C | 83% | 1007.7 hPa | 0 mm | 0.89 m/s, 346° | - | - |
| 1777974381 | -1.67° C | 83% | 1007.6 hPa | 0 mm | 2.24 m/s, 346° | - | - |
* Rain latest hour (hover to see other rain measurements)
** Current wind speed in m/s (hover to see current wind gust speed)